Back to catalog

BREEZE-M DEB

LostHEO
NORAD 32492·DEBRIS·🇷🇺 Russia

Launched Feb 28, 2006 from Baikonur Cosmodrome

Loading…

Next Passes (next 24 hours)

TLE

StaleSource: Space-Track

Epoch: Apr 9, 2023, 21:37 UTC

1 32492U 06006AF  23099.90081075  .00002583  00000-0  84214-2 0  9994
2 32492  51.4047 271.0348 4964498 189.2224 348.3130  5.32872747311440

Track BREEZE-M DEB in real time with AllMySat

Download on the App Store